EW0822 Weather Reports


time (UTC)temp
C
wind
direction
speed
KPH
gust
KPH
rain 1hr
cm
rain 24hr
cm
rain mn
cm
humidity
%
barometer
mb
20260902120021 21 194 0.0 8.0 0.00 0.03 0.03 57 1020.3
20260902114518 21 233 0.0 0.0 0.00 0.03 0.03 58 1020.4
20260902113017 20 233 0.0 0.0 0.00 0.03 0.03 57 1020.5
20260902111516 21 210 0.0 0.0 0.00 0.03 0.03 57 1020.5
20260902110013 20 219 0.0 0.0 0.00 0.03 0.03 56 1020.5
20260902104512 20 239 0.0 0.0 0.00 0.03 0.03 58 1020.6
20260902103009 20 205 0.0 0.0 0.00 0.03 0.03 60 1020.6
20260902101518 20 196 0.0 0.0 0.00 0.03 0.03 60 1020.7
20260902100006 20 207 0.0 0.0 0.00 0.03 0.03 61 1020.6
20260902094505 20 212 0.0 0.0 0.00 0.03 0.03 62 1020.6
20260902093001 19 200 0.0 0.0 0.00 0.03 0.03 64 1020.6
20260902091600 19 207 0.0 0.0 0.00 0.03 0.03 65 1020.6
20260902084558 19 203 0.0 0.0 0.00 0.03 0.03 69 1020.6
20260902083053 18 203 0.0 0.0 0.03 0.03 0.03 74 1020.7
20260902081608 18 204 0.0 0.0 0.03 0.03 0.03 76 1020.6
20260902080044 17 202 0.0 0.0 0.03 0.03 0.03 80 1020.6
20260902074538 16 202 0.0 0.0 0.03 0.03 0.03 80 1020.5
20260902073035 -17 0.0 0.0 0.00 0.00 0.00 1020.4
20260902071535 -17 0.0 0.0 0.00 0.00 0.00 1020.4
20260902070024 -17 0.0 0.0 0.00 0.00 0.00 1020.4
20260902064520 -17 0.0 0.0 0.00 0.00 0.00 1020.3
20260902063022 -17 0.0 0.0 0.00 0.00 0.00 1020.2
20260902061529 -17 0.0 0.0 0.00 0.00 0.00 1020.3
20260902060007 -17 0.0 0.0 0.00 0.00 0.00 1020.1
20260902054503 13 202 0.0 0.0 0.00 0.00 0.00 77 1019.8
20260902053004 13 202 0.0 0.0 0.00 0.00 0.00 77 1019.8
20260902051501 13 202 0.0 0.0 0.00 0.00 0.00 77 1019.6
20260902050111 13 202 0.0 0.0 0.00 0.00 0.00 77 1019.6
20260902044609 13 202 0.0 0.0 0.00 0.00 0.00 77 1019.5
20260902043059 13 202 0.0 0.0 0.00 0.00 0.00 77 1019.5
20260902041559 13 202 0.0 0.0 0.00 0.00 0.00 77 1019.6
20260902040109 13 202 0.0 0.0 0.00 0.00 0.00 77 1019.7
20260902034603 13 202 0.0 0.0 0.00 0.00 0.00 77 1019.6
20260902033106 13 202 0.0 0.0 0.00 0.00 0.00 77 1019.6
20260902031556 13 202 0.0 0.0 0.00 0.00 0.00 77 1019.6
20260902030055 13 202 0.0 0.0 0.00 0.00 0.00 77 1019.6
20260902024603 12 202 0.0 0.0 0.00 0.00 0.00 76 1019.9
20260902023058 12 202 0.0 0.0 0.00 0.00 0.00 76 1020.0
20260902021555 13 202 0.0 0.0 0.00 0.00 0.00 76 1020.2
20260902020052 12 202 0.0 0.0 0.00 0.00 0.00 76 1020.1
20260902014550 12 202 0.0 0.0 0.00 0.00 0.00 77 1019.8
20260902013050 12 202 0.0 0.0 0.00 0.00 0.00 77 1019.9
20260902011548 12 202 0.0 0.0 0.00 0.00 0.00 77 1020.0
20260902010047 13 202 0.0 0.0 0.00 0.00 0.00 76 1020.0
20260902004546 13 202 0.0 0.0 0.00 0.00 0.00 76 1020.0
20260902003046 13 203 0.0 0.0 0.00 0.00 0.00 77 1020.1
20260902001545 13 203 0.0 0.0 0.00 0.00 0.00 77 1020.0
20260902000043 13 203 0.0 0.0 0.00 0.00 0.00 76 1020.1
20260901234541 13 203 0.0 0.0 0.00 0.00 0.00 76 1019.8
20260901233040 13 203 0.0 0.0 0.00 0.00 0.00 76 1019.9
20260901231540 13 203 0.0 0.0 0.00 0.00 0.00 76 1020.1
20260901230038 13 203 0.0 0.0 0.00 0.00 0.00 77 1020.0
20260901224536 13 203 0.0 0.0 0.00 0.00 0.00 77 1020.5
20260901223042 13 203 0.0 0.0 0.00 0.00 0.00 77 1020.6
20260901221531 13 203 0.0 0.0 0.00 0.00 0.00 77 1020.4
20260901220036 13 203 0.0 0.0 0.00 0.00 0.00 77 1020.4
20260901214534 14 203 0.0 0.0 0.00 0.00 0.00 78 1020.4
20260901213039 14 203 0.0 0.0 0.00 0.00 0.00 78 1020.3
20260901211528 14 203 0.0 0.0 0.00 0.00 0.00 78 1020.1
20260901210027 15 203 0.0 0.0 0.00 0.00 0.00 78 1020.3
20260901204526 15 203 0.0 0.0 0.00 0.00 0.00 79 1020.3
20260901203026 15 203 0.0 0.0 0.00 0.00 0.00 79 1020.2
20260901201525 15 203 0.0 0.0 0.00 0.00 0.00 79 1020.0
20260901200024 16 203 0.0 0.0 0.00 0.00 0.00 79 1020.1
20260901194524 16 203 0.0 0.0 0.00 0.00 0.00 80 1020.1
20260901193025 16 203 0.0 0.0 0.00 0.00 0.00 80 1020.1
20260901191523 17 203 0.0 0.0 0.00 0.00 0.00 80 1020.0
20260901190021 17 203 0.0 0.0 0.00 0.00 0.00 79 1020.0
20260901184524 18 204 0.0 0.0 0.00 0.00 0.00 77 1020.0
20260901183020 19 204 0.0 0.0 0.00 0.00 0.00 74 1019.9
20260901181519 20 204 0.0 0.0 0.00 0.00 0.00 72 1019.8
20260901180019 20 204 0.0 0.0 0.00 0.00 0.00 70 1019.8
20260901174518 20 204 0.0 0.0 0.00 0.00 0.00 69 1019.8
20260901173018 21 204 0.0 0.0 0.00 0.00 0.00 68 1019.6
20260901171518 21 204 0.0 0.0 0.00 0.00 0.00 67 1019.6
20260901170016 21 204 0.0 0.0 0.00 0.00 0.00 68 1019.6
20260901164516 20 204 0.0 0.0 0.00 0.00 0.00 69 1019.7
20260901163015 20 204 0.0 0.0 0.00 0.00 0.00 71 1019.7
20260901161515 20 204 0.0 0.0 0.00 0.00 0.00 72 1019.7
20260901160017 20 209 0.0 0.0 0.00 0.00 0.00 70 1019.7
20260901154513 20 209 0.0 0.0 0.00 0.00 0.00 67 1019.6
20260901153013 20 209 0.0 0.0 0.00 0.00 0.00 67 1019.5
20260901151514 21 209 0.0 0.0 0.00 0.00 0.00 66 1019.6
20260901150013 20 219 0.0 0.0 0.00 0.00 0.00 67 1019.5
20260901144511 20 219 0.0 0.0 0.00 0.00 0.00 68 1019.6
20260901143011 20 221 0.0 0.0 0.00 0.00 0.00 72 1019.7
20260901141517 20 240 0.0 0.0 0.00 0.00 0.00 72 1019.7
20260901140009 20 202 0.0 0.0 0.00 0.46 0.00 70 1019.7
20260901134512 20 198 0.0 0.0 0.00 0.46 0.00 68 1019.6
20260901133008 20 267 0.0 0.0 0.00 0.46 0.00 69 1019.7
20260901131507 19 206 0.0 0.0 0.00 0.46 0.00 72 1019.9
20260901130007 19 201 0.0 0.0 0.00 0.46 0.00 72 1019.9
20260901124507 18 201 0.0 0.0 0.00 0.46 0.00 73 1019.9
20260901123008 19 231 0.0 0.0 0.00 0.46 0.00 72 1020.0
20260901121505 20 205 0.0 20.9 0.00 0.46 0.00 69 1019.8